Weather reports worldwide

Advertisment
Islay/Port Ellen, United Kingdom (3105): temperature & dewpoint: 06.12.2019 16:00:00 - 12.12.2019 16:00:00 (GMT)Islay/Port Ellen, United Kingdom (3105): temperature -20cm & temperature -100cm: 06.12.2019 16:00:00 - 12.12.2019 16:00:00 (GMT)Islay/Port Ellen, United Kingdom (3105): wind speed & gusts: 06.12.2019 16:00:00 - 12.12.2019 16:00:00 (GMT)Islay/Port Ellen, United Kingdom (3105): wind direction: 06.12.2019 16:00:00 - 12.12.2019 16:00:00 (GMT)Islay/Port Ellen, United Kingdom (3105): reduced air pressure: 06.12.2019 16:00:00 - 12.12.2019 16:00:00 (GMT)Islay/Port Ellen, United Kingdom (3105): visibility: 06.12.2019 16:00:00 - 12.12.2019 16:00:00 (GMT)Islay/Port Ellen, United Kingdom (3105): precipitation: 06.12.2019 16:00:00 - 12.12.2019 16:00:00 (GMT)
Date & Time tt [°C] td [°C] tt -20cm [°C] tt -100cm [°C] ff [km/h] ff [kn] fx [km/h] fx [kn] dd ppp [hPa] vv [km] rr [mm]
12.12.2019 16:00:00 6,3 6,0 - - 28 15 - - ESE 974,6 8 3,8
12.12.2019 15:00:00 6,5 6,2 - - 16 9 - - S 976,0 3,2 6,4
12.12.2019 14:00:00 6,3 6,0 - - 26 14 - - SE 977,2 2,9 1,2
12.12.2019 13:00:00 6,3 5,9 - - 28 15 - - SE 978,4 3,8 2,0
12.12.2019 12:00:00 6,4 5,9 - - 24 13 - - SE 979,8 3,4 1,2
12.12.2019 11:00:00 7,1 6,0 - - 13 7 - - S 980,9 45 0,0
12.12.2019 10:00:00 6,5 5,1 - - 16 9 - - SSE 982,2 10 0,0
12.12.2019 09:00:00 5,4 4,4 7,2 8,0 21 11 - - SSE 983,5 10 0,2
12.12.2019 08:00:00 5,0 4,2 - - 15 8 - - SSE 984,5 10 0,2
12.12.2019 07:00:00 4,5 3,8 - - 13 7 - - S 985,5 23 0,0
12.12.2019 06:00:00 3,8 2,9 - - 15 8 - - S 986,5 16 0,0
12.12.2019 05:00:00 4,2 3,4 - - 15 8 - - S 987,7 11 0,0
12.12.2019 04:00:00 4,0 2,9 - - 18 10 - - S 988,7 14 0,0
12.12.2019 03:00:00 4,6 3,2 - - 26 14 48 26 SSW 989,7 11 0,2
12.12.2019 02:00:00 5,2 3,6 - - 34 18 52 28 SW 990,7 12 0,0
12.12.2019 01:00:00 5,0 3,5 - - 29 16 48 26 SSW 991,7 12 0,0
12.12.2019 00:00:00 4,5 2,8 - - 31 17 54 29 SSW 992,3 12 0,8
11.12.2019 23:00:00 4,3 2,0 - - 39 21 54 29 WSW 993,3 12 0,4
11.12.2019 22:00:00 4,5 3,2 - - 29 16 54 29 WSW 993,5 8 2,2
11.12.2019 21:00:00 5,8 3,3 - - 28 15 61 33 WSW 993,6 10 0,0
11.12.2019 20:00:00 6,1 2,7 - - 35 19 68 37 WSW 993,6 13 0,2
11.12.2019 19:00:00 5,2 2,6 - - 44 24 68 37 W 993,9 4,0 0,2
11.12.2019 18:00:00 4,5 1,8 - - 41 22 55 30 WNW 994,1 3,9 0,2
11.12.2019 17:00:00 6,7 2,4 - - 37 20 63 34 W 993,5 10 0,6
11.12.2019 16:00:00 6,0 2,5 - - 31 17 57 31 W 993,3 14 0,0
11.12.2019 15:00:00 5,9 2,3 - - 44 24 59 32 W 993,0 14 0,0
11.12.2019 14:00:00 6,1 3,4 - - 41 22 55 30 W 992,6 13 0,0
11.12.2019 13:00:00 6,2 3,5 - - 42 23 72 39 WSW 992,9 14 0,2
11.12.2019 12:00:00 5,4 3,4 - - 41 22 57 31 SSW 992,9 10 0,0
11.12.2019 11:00:00 5,0 3,8 - - 39 21 59 32 SW 993,1 9 1,0
11.12.2019 10:00:00 5,0 4,0 - - 39 21 61 33 SSW 993,1 10 2,4
11.12.2019 09:00:00 4,7 3,5 7,7 8,0 44 24 61 33 SSW 992,8 10 0,6
11.12.2019 08:00:00 5,0 3,7 - - 42 23 59 32 SSW 992,5 10 0,8
11.12.2019 07:00:00 4,8 3,3 - - 46 25 67 36 SW 993,1 3,3 1,4
11.12.2019 06:00:00 5,1 3,3 - - 46 25 68 37 SW 992,6 10 1,0
11.12.2019 05:00:00 5,4 3,4 - - 48 26 74 40 SW 993,3 11 0,4
11.12.2019 04:00:00 5,7 3,2 - - 48 26 68 37 SW 993,9 13 0,0
11.12.2019 03:00:00 6,0 2,8 - - 50 27 68 37 SW 994,3 14 0,0
11.12.2019 02:00:00 6,8 3,4 - - 31 17 65 35 WSW 994,4 11 0,0
11.12.2019 01:00:00 6,8 3,1 - - 50 27 68 37 W 994,5 9 0,6
11.12.2019 00:00:00 7,4 2,7 - - 50 27 68 37 W 994,4 10 0,0
10.12.2019 23:00:00 6,0 2,3 - - 50 27 80 43 W 994,3 2,9 0,2
10.12.2019 22:00:00 7,1 2,3 - - 52 28 76 41 W 993,2 11 0,2
10.12.2019 21:00:00 7,5 4,3 - - 42 23 74 40 W 992,1 9 1,2
10.12.2019 20:00:00 7,9 3,1 - - 50 27 74 40 W 991,2 10 0,4
10.12.2019 19:00:00 7,1 3,5 - - 46 25 72 39 W 990,3 12 0,2
10.12.2019 18:00:00 7,2 5,0 - - 44 24 80 43 W 989,1 10 0,6
10.12.2019 17:00:00 7,7 4,3 - - 46 25 70 38 W 987,9 10 0,2
10.12.2019 16:00:00 7,3 5,2 - - 44 24 68 37 W 987,5 10 0,2
10.12.2019 15:00:00 7,3 5,6 - - 48 26 68 37 W 987,4 8 0,4
10.12.2019 14:00:00 7,8 6,4 - - 46 25 68 37 W 986,3 10 0,8
10.12.2019 13:00:00 8,6 7,9 - - 44 24 70 38 W 985,4 10 1,8
10.12.2019 12:00:00 11,9 11,5 - - 34 18 55 30 S 983,9 6 0,6
10.12.2019 11:00:00 11,9 10,9 - - 37 20 59 32 S 985,6 10 0,0
10.12.2019 10:00:00 11,5 10,4 - - 42 23 72 39 S 987,5 10 0,0
10.12.2019 09:00:00 10,9 9,8 7,7 8,2 42 23 72 39 S 989,5 10 0,0
10.12.2019 08:00:00 10,3 9,5 - - 44 24 72 39 S 991,4 10 0,6
10.12.2019 07:00:00 9,7 8,8 - - 52 28 76 41 S 993,5 10 0,4
10.12.2019 06:00:00 8,9 8,2 - - 52 28 76 41 S 996,0 9 1,0
10.12.2019 05:00:00 8,6 7,5 - - 52 28 78 42 S 998,9 8 0,4
10.12.2019 04:00:00 8,4 6,3 - - 48 26 68 37 S 1001,7 17 0,0
10.12.2019 03:00:00 8,1 5,3 - - 46 25 72 39 S 1004,1 17 0,0
10.12.2019 02:00:00 7,8 4,8 - - 42 23 67 36 S 1006,6 10 0,0
10.12.2019 01:00:00 7,7 5,0 - - 35 19 57 31 S 1008,5 18 0,0
10.12.2019 00:00:00 7,2 5,4 - - 31 17 68 37 S 1010,8 17 0,0
09.12.2019 23:00:00 6,8 5,2 - - 22 12 - - S 1012,6 16 0,0
09.12.2019 22:00:00 6,6 4,7 - - 16 9 - - S 1014,4 17 0,0
09.12.2019 21:00:00 7,2 5,0 - - 22 12 - - S 1015,6 10 0,0
09.12.2019 20:00:00 7,8 5,5 - - 21 11 - - S 1016,3 10 0,0
09.12.2019 19:00:00 8,0 5,2 - - 21 11 - - SSW 1016,7 10 0,0
09.12.2019 18:00:00 7,9 4,5 - - 18 10 - - S 1017,1 12 0,0
09.12.2019 17:00:00 8,1 4,0 - - 16 9 - - SSW 1017,3 9 0,0
09.12.2019 16:00:00 7,7 2,7 - - 16 9 - - WSW 1017,2 10 0,0
09.12.2019 15:00:00 6,9 2,0 - - 18 10 - - W 1016,7 12 0,0
09.12.2019 14:00:00 7,7 2,7 - - 22 12 - - WNW 1016,7 16 0,0
09.12.2019 13:00:00 7,8 2,5 - - 22 12 - - WNW 1016,7 13 0,0
09.12.2019 12:00:00 7,3 1,6 - - 24 13 - - NW 1015,9 10 0,0
09.12.2019 11:00:00 7,2 2,6 - - 24 13 - - NW 1015,5 9 0,0
09.12.2019 10:00:00 5,4 2,3 - - 21 11 - - NNW 1014,2 23 0,0
09.12.2019 09:00:00 5,0 1,9 7,7 8,2 24 13 - - NNW 1012,4 10 0,0
09.12.2019 08:00:00 5,7 2,5 - - 37 20 50 27 NW 1010,7 10 0,0
09.12.2019 07:00:00 6,2 2,2 - - 39 21 57 31 NNW 1008,6 20 0,0
09.12.2019 06:00:00 6,8 2,3 - - 39 21 55 30 NNW 1006,2 15 0,0
09.12.2019 05:00:00 6,6 2,7 - - 41 22 55 30 NNW 1003,9 13 0,0
09.12.2019 04:00:00 6,7 3,3 - - 41 22 63 34 NNW 1001,4 13 0,0
09.12.2019 03:00:00 6,9 4,6 - - 42 23 67 36 NNW 999,1 11 0,2
09.12.2019 02:00:00 7,1 4,0 - - 48 26 72 39 NNW 996,2 14 0,2
09.12.2019 01:00:00 7,6 4,4 - - 44 24 65 35 NNW 992,8 21 0,0
09.12.2019 00:00:00 6,9 4,7 - - 39 21 52 28 NNW 988,9 28 0,0
08.12.2019 23:00:00 5,1 4,4 - - 18 10 - - N 985,3 21 0,4
08.12.2019 22:00:00 6,4 5,4 - - 26 14 - - NNW 981,4 5 1,0
08.12.2019 21:00:00 8,0 5,6 - - 28 15 - - W 978,8 8 0,0
08.12.2019 20:00:00 7,7 5,6 - - 29 16 68 37 W 978,5 9 1,2
08.12.2019 19:00:00 7,8 5,6 - - 34 18 68 37 W 978,4 11 0,6
08.12.2019 18:00:00 8,2 4,9 - - 46 25 63 34 W 978,4 12 0,0
08.12.2019 17:00:00 7,5 4,9 - - 44 24 68 37 W 978,3 12 0,2
08.12.2019 16:00:00 7,3 6,6 - - 48 26 91 49 W 978,5 10 4,0
08.12.2019 15:00:00 7,9 5,5 - - 50 27 98 53 WSW 978,8 9 1,6
08.12.2019 14:00:00 7,5 6,5 - - 55 30 81 44 WSW 980,1 8 1,2
08.12.2019 13:00:00 7,3 6,0 - - 50 27 85 46 SW 980,9 8 2,0
08.12.2019 12:00:00 6,7 4,3 - - 52 28 80 43 SW 981,6 10 0,8
08.12.2019 11:00:00 8,2 5,0 - - 52 28 78 42 WSW 982,7 10 0,0
08.12.2019 10:00:00 6,4 5,9 - - 63 34 107 58 WSW 983,5 9 1,4
08.12.2019 09:00:00 6,1 3,7 8,2 8,2 54 29 83 45 WSW 984,1 1,2 1,4
08.12.2019 08:00:00 7,2 5,4 - - 41 22 70 38 WSW 984,1 9 0,8
08.12.2019 07:00:00 7,9 4,6 - - 55 30 72 39 WSW 984,8 11 0,0
08.12.2019 06:00:00 7,0 4,8 - - 55 30 85 46 WSW 985,4 6 0,6
08.12.2019 05:00:00 8,0 4,5 - - 52 28 72 39 W 985,6 14 0,0
08.12.2019 04:00:00 8,0 4,4 - - 54 29 81 44 W 986,0 11 0,2
08.12.2019 03:00:00 8,0 6,4 - - 46 25 87 47 W 986,1 10 0,6
08.12.2019 02:00:00 9,0 8,5 - - 44 24 78 42 W 985,8 8 0,8
08.12.2019 01:00:00 9,0 7,0 - - 57 31 78 42 W 985,7 7 0,2
08.12.2019 00:00:00 10,2 8,3 - - 39 21 67 36 WSW 984,9 11 0,0
07.12.2019 23:00:00 9,4 8,5 - - 59 32 87 47 W 985,3 8 1,0
07.12.2019 22:00:00 11,1 10,4 - - 34 18 57 31 SSW 984,7 17 0,2
07.12.2019 21:00:00 10,7 10,3 - - 35 19 61 33 S 985,5 8 1,8
07.12.2019 20:00:00 11,0 10,3 - - 39 21 63 34 S 988,3 4,3 1,4
07.12.2019 19:00:00 11,0 10,0 - - 34 18 52 28 S 990,3 7 1,2
07.12.2019 18:00:00 11,1 10,2 - - 29 16 48 26 S 992,7 8 1,2
07.12.2019 17:00:00 11,2 10,1 - - 24 13 46 25 S 994,8 10 0,4
07.12.2019 16:00:00 11,5 10,3 - - 31 17 52 28 SSW 996,6 9 0,0
07.12.2019 15:00:00 11,3 10,4 - - 35 19 54 29 SSW 997,6 7 0,0
07.12.2019 14:00:00 11,1 10,2 - - 35 19 52 28 SSW 999,1 12 0,0
07.12.2019 13:00:00 10,5 9,9 - - 28 15 48 26 SSW 1000,3 29 1,4
07.12.2019 12:00:00 9,1 8,6 - - 21 11 - - S 1001,4 6 1,2
07.12.2019 11:00:00 9,2 8,4 - - 21 11 - - S 1002,8 10 0,0
07.12.2019 10:00:00 9,5 8,7 - - 22 12 - - SSW 1003,9 23 0,0
07.12.2019 09:00:00 9,2 8,8 8,0 8,0 24 13 - - SSW 1004,8 18 0,0
07.12.2019 08:00:00 9,1 8,6 - - 26 14 - - SW 1005,1 6 0,0
07.12.2019 07:00:00 9,6 8,5 - - 29 16 - - WSW 1005,2 15 0,0
07.12.2019 06:00:00 9,3 8,3 - - 29 16 - - W 1005,7 11 0,2
07.12.2019 05:00:00 9,1 8,3 - - 29 16 - - W 1005,8 2,2 0,4
07.12.2019 04:00:00 9,0 7,5 - - 31 17 - - W 1005,5 18 0,0
07.12.2019 03:00:00 8,7 7,8 - - 28 15 - - W 1005,2 16 0,2
07.12.2019 02:00:00 9,1 7,6 - - 31 17 - - W 1004,5 19 0,0
07.12.2019 01:00:00 9,4 7,7 - - 29 16 - - W 1004,4 14 0,0
07.12.2019 00:00:00 9,1 7,7 - - 39 21 50 27 W 1004,0 12 0,0
06.12.2019 23:00:00 9,2 7,8 - - 35 19 48 26 WNW 1003,3 6 0,0
06.12.2019 22:00:00 9,4 7,5 - - 31 17 - - WNW 1002,6 13 0,0
06.12.2019 21:00:00 9,1 7,6 - - 34 18 - - WNW 1002,1 15 0,0
06.12.2019 20:00:00 9,3 7,7 - - 34 18 - - WNW 1001,7 11 0,0
06.12.2019 19:00:00 9,0 7,5 - - 37 20 50 27 WNW 1001,0 10 0,2
06.12.2019 18:00:00 9,3 7,8 - - 35 19 50 27 WNW 1000,1 12 0,0
06.12.2019 17:00:00 9,6 8,0 - - 35 19 46 25 WNW 999,0 10 0,0
06.12.2019 16:00:00 9,6 7,7 - - 35 19 48 26 W 997,9 10 0,0

tt = temperature
td = dewpoint
tt -20cm = temperature -20cm
tt -100cm = temperature -100cm
ff = wind speed
fx = gusts
dd = wind direction
ppp = reduced air pressure
vv = visibility
rr = precipitation

Next stations